Location: Red Rock Farm
(35.2100°N, 97.2200°W)
Time: 22:08:50
(UTC-06:00)

ISS - All Passes

Search period start: 24 November 2017 00:00
Search period end: 04 December 2017 00:00
Orbit: 401 x 407 km, 51.6° (Epoch: 25 November)

Date Brightness Start Highest point End Pass type
(mag) Time Alt. Az. Time Alt. Az. Time Alt. Az.
24 Nov - 02:36:33 10° NNW 02:39:33 33° NE 02:42:32 10° ESE night (unlit)
24 Nov - 04:13:29 10° W 04:15:50 19° SW 04:18:11 10° S night (unlit)
24 Nov - 19:13:47 10° SW 19:17:00 58° SE 19:20:13 10° NE visible
24 Nov - 20:51:37 10° WNW 20:53:43 16° NNW 20:55:48 10° N night (unlit)
25 Nov - 01:44:36 10° NNW 01:47:03 19° NNE 01:49:30 10° E night (unlit)
25 Nov - 03:20:34 10° WNW 03:23:38 39° SW 03:26:41 10° SSE night (unlit)
25 Nov - 18:21:58 10° S 18:24:45 26° SE 18:27:33 10° ENE visible
25 Nov - 19:58:22 10° W 20:01:10 25° NW 20:03:58 10° NNE visible
26 Nov - 00:53:00 10° N 00:54:27 12° NNE 00:55:56 10° NE night (unlit)
26 Nov - 02:28:05 10° NW 02:31:21 89° E 02:34:36 10° SE night (unlit)
26 Nov - 17:31:03 10° SSE 17:32:35 13° SE 17:34:05 10° E daylight
26 Nov - 19:05:31 10° WSW 19:08:43 48° NW 19:11:53 10° NE visible
27 Nov - 01:35:50 10° NW 01:38:57 41° NE 01:42:03 10° ESE night (unlit)
27 Nov - 03:13:16 10° W 03:15:08 15° SW 03:17:00 10° SSW night (unlit)
27 Nov - 18:13:04 10° SW 18:16:20 78° SE 18:19:36 10° NE visible
27 Nov - 19:51:24 10° WNW 19:53:09 14° NNW 19:54:53 10° N visible
28 Nov - 00:43:47 10° NNW 00:46:27 23° NNE 00:49:07 10° E night (unlit)
28 Nov - 02:20:01 10° WNW 02:22:56 30° SW 02:25:49 10° SSE night (unlit)
28 Nov - 17:21:01 10° SSW 17:24:01 34° SE 17:27:01 10° ENE daylight
28 Nov - 18:57:56 10° W 19:00:32 21° NNW 19:03:08 10° NNE visible
28 Nov - 23:51:58 10° N 23:53:51 14° NNE 23:55:44 10° ENE night (unlit)
29 Nov - 01:27:23 10° NW 01:30:38 69° SW 01:33:51 10° SE night (unlit)
29 Nov - 16:29:39 10° S 16:31:46 16° SE 16:33:54 10° E daylight
29 Nov - 18:04:55 10° WSW 18:08:00 38° NW 18:11:06 10° NNE visible
30 Nov - 00:35:01 10° NW 00:38:14 53° NE 00:41:25 10° ESE night (unlit)
30 Nov - 02:13:15 10° WSW 02:14:19 11° SW 02:15:23 10° SW night (unlit)
30 Nov - 17:12:17 10° SW 17:15:32 81° NW 17:18:49 10° NE daylight
30 Nov - 18:51:11 10° NW 18:52:28 12° NNW 18:53:46 10° N visible
30 Nov - 23:42:52 10° NNW 23:45:44 27° NE 23:48:34 10° E night (unlit)
01 Dec - 01:19:25 10° WNW 01:22:06 23° SW 01:24:45 10° S night (unlit)
01 Dec - 16:20:03 10° SSW 16:23:11 44° SE 16:26:19 10° ENE daylight
01 Dec - 17:57:25 10° WNW 17:59:47 18° NNW 18:02:10 10° NNE visible
01 Dec - 22:50:55 10° NNW 22:53:07 17° NNE 22:55:19 10° ENE night (unlit)
02 Dec - 00:26:36 10° WNW 00:29:47 51° SW 00:32:57 10° SSE night (unlit)
02 Dec - 15:28:21 10° S 15:30:52 21° SE 15:33:24 10° E daylight
02 Dec - 17:04:14 10° W 17:07:11 31° NW 17:10:09 10° NNE daylight
02 Dec - 21:59:29 10° N 22:00:24 11° NNE 22:01:19 10° NE night (unlit)
02 Dec - 23:34:08 10° NW 23:37:23 69° NE 23:40:37 10° SE night (unlit)
03 Dec - 16:11:25 10° WSW 16:14:40 62° NW 16:17:55 10° NE daylight
03 Dec - 17:51:08 10° NNW 17:51:41 10° NNW 17:52:15 10° NNW visible
03 Dec - 22:41:52 10° NNW 22:44:52 33° NE 22:47:52 10° ESE night (unlit)
